Location: East Guldeford
(50.9500°N, 0.7500°E)
Time: 18:05:38
(UTC+00:00)

Cosmos 1461 - Pass Details

Date: 12 May 2021
Orbit: 509 x 654 km, 65.0° (Epoch: 16 June)

Event Time Altitude Azimuth Distance (km) Brightness Sun altitude
Exits shadow 23:11:46 43° 203° (SSW) 913 3.5 -20.1°
Maximum altitude 23:13:14 76° 128° (SE) 671 3.0 -20.1°
Drops below altitude 10° 23:17:51 10° 43° (NE) 2,026 6.2 -20.2°
Sets 23:20:06 0° 42° (NE) 2,919 7.1 -20.3°
